Flag Weather past 2 weeks in Sharjah, Sharjah, United Arab Emirates

Now
70 °F

Clear.


Feels Like: 70 °F
Forecast: 74 / 81 °F
Wind: 2 mph from South

Location: Sharjah International Airport

Current Time: Nov 27, 2014 at 3:17:26 AM

Latest Report: Nov 27, 2014 at 3:00 AM


Visibility: 10 mi

Pressure: 29.95 "Hg

Humidity: 83%

Dew point: 64 °F

Location of SharjahLocation

Historic Weather in Sharjah — Graph

°F

Sharjah temperature yesterday

Maximum temperature yesterday: 88 °F (at 1:00 PM)
Minimum temperature yesterday: 72 °F (at 5:00 AM)
Average temperature yesterday: 79 °F

Past Weeks' High & Low Weather Summary

 TemperatureHumidityPressure
High90 °F (Nov 25, 2:00 PM)94% (Nov 24, 6:00 AM)30.15 "Hg (Nov 24, 6:00 AM)
Low61 °F (Nov 12, 5:00 AM)16% (Nov 13, 12:00 PM)29.89 "Hg (Nov 23, 3:00 PM)
Average76 °F57%30.01 "Hg
* Reported Nov 12 2:00 AM — Nov 27 2:00 AM, Sharjah, Weather by CustomWeather, © 2014

Note: Actual official high and low records may vary slightly from our data, if they occured in-between our weather recording intervals... More about our weather records

Advertising

Sharjah weather history for previous 24 hours

 ConditionsComfort  
Time TempWeatherWind HumidityBarometerVisibility
2:00 AM
Nov 27
72 °FClear.3 mph83%29.95 "Hg10 mi
1:00 AM75 °FClear.2 mph74%29.95 "Hg10 mi
12:00 AM77 °FClear.3 mph74%29.95 "Hg10 mi
11:00 PM
Nov 26
77 °FClear.5 mph74%29.95 "Hg10 mi
10:00 PM77 °FClear.6 mph74%29.98 "Hg10 mi
9:00 PM79 °FClear.5 mph74%29.95 "Hg10 mi
8:00 PM79 °FClear.5 mph70%29.95 "Hg10 mi
7:00 PM81 °FClear.6 mph66%29.95 "Hg10 mi
6:00 PM81 °FClear.8 mph62%29.95 "Hg10 mi
5:00 PM84 °FSunny.12 mph51%29.92 "Hg10 mi
4:00 PM86 °FSunny.13 mph43%29.92 "Hg10 mi
3:00 PM86 °FPassing clouds.10 mph43%29.92 "HgN/A
2:00 PM88 °FPassing clouds.13 mph40%29.92 "HgN/A
1:00 PM88 °FPassing clouds.12 mph38%29.95 "HgN/A
12:00 PM86 °FPassing clouds.10 mph43%29.98 "HgN/A
11:00 AM84 °FPassing clouds.10 mph45%29.98 "HgN/A
10:00 AM81 °FPassing clouds.12 mph54%30.01 "HgN/A
9:00 AM77 °FPassing clouds.9 mph57%30.01 "HgN/A
8:00 AM75 °FPassing clouds.8 mph57%29.98 "HgN/A
7:00 AM72 °FSunny.6 mph78%29.95 "Hg10 mi
6:00 AM72 °FClear.3 mph78%29.92 "Hg10 mi
5:00 AM72 °FClear.6 mph78%29.92 "Hg10 mi
4:00 AM73 °FClear.6 mph74%29.89 "Hg10 mi
3:00 AM73 °FClear.2 mph74%29.89 "Hg10 mi
Weather by CustomWeather, © 2014

See weather overviewHow to use our weather pages